Starlink 30369

operational
NORAD ID: 57781 Int'l Des: 2023-134 Owner: SPXS Country: US Constellation: starlink
LEOCIRCULAR

About Starlink 30369

Description loading...

Live Position

Loading 3D Globe...

Upcoming Passes

Altitude History

Altitude vs Time

uPlot chart will show altitude changes over time

Two-Line Element Set

1 57781U 23134L 25351.54486425 .00000350 00000-0 40992-4 0 9991
2 57781 43.0026 283.9274 0001201 276.1719 83.8987 15.02536183127116
Epoch: Dec 17, 2025 • Age: 12 hours

Current Status

Altitude 560.8 km
Velocity 7.58 km/s
Sub-Earth Point -10.83°S, 9.38°E
Launch Date Sep 4, 2023
Age 2.2 years
Type internet

Technical Details

Classification Payload
Mass 730.00 kg
Dry Mass 700.00 kg
Total Mass 730.00 kg
Length 0.30 m
Diameter 4.10 m
Span 29.00 m
Shape Box + pan
Manufacturer SPXS
Bus Type Starlink V2M
Phase Status In Orbit
Owner/State SPXS/US

Large Constellations

Loading constellations...